Location: Kurfuerst-Ruprecht-Gymnasium 67433 Neustadt
(49.3564°N, 8.1585°E)
Time: 16:58:52
(UTC+01:00)

ISS - Visible Passes

Search period start: 19 November 2018 00:00
Search period end: 29 November 2018 00:00
Orbit: 401 x 408 km, 51.6° (Epoch: 20 November)

Date Brightness Start Highest point End Pass type
(mag) Time Alt. Az. Time Alt. Az. Time Alt. Az.
24 Nov -1.5 18:33:02 10° S 18:34:03 14° SSE 18:34:03 14° SSE visible
25 Nov -1.3 19:15:55 10° SW 19:16:54 18° SW 19:16:54 18° SW visible
26 Nov -2.7 18:24:06 10° SSW 18:26:59 30° SSE 18:26:59 30° SSE visible
27 Nov -2.0 17:32:36 10° S 17:34:59 19° SE 17:37:00 12° E visible
27 Nov -2.0 19:07:50 10° WSW 19:09:40 31° WSW 19:09:40 31° WSW visible
28 Nov -3.6 18:15:44 10° SW 18:18:56 55° SSE 18:19:36 44° ESE visible
28 Nov -0.2 19:52:13 10° W 19:52:16 10° W 19:52:16 10° W visible
